Location: Munkebjergskolens Observatorium
(55.3864°N, 10.3987°E)
Time: 11:33:22
(UTC+01:00)

COSMOS 2251 DEB - Pass Details

Date: 16 December 2023
Orbit: 609 x 851 km, 74.0° (Epoch: 02 March)

Event Time Altitude Azimuth Distance (km) Brightness Sun altitude
Exits shadow 07:39:08 - 328° (NNW) 2,863 ? -7.8°
Reaches altitude 10° 07:40:08 10° 327° (NNW) 2,491 ? -7.7°
Maximum altitude 07:45:44 56° 251° (WSW) 1,016 ? -7.0°
Drops below altitude 10° 07:51:17 10° 174° (S) 2,464 ? -6.3°
Sets 07:53:43 0° 171° (S) 3,377 ? -6.0°
